Olive Branch, MS

7:13 PM CDT on September 21, 2017 (GMT -0500)
Olive Branch

Weather History for KOLV - October, 2012

Change the Weather History Date:

Sunday, October 7, 2012

  Actual Average (KMEM) Record (KMEM)
Temperature  
Mean Temperature 48 °F -  
Max Temperature 55 °F 75 °F 93 °F (2007)
Min Temperature 42 °F 54 °F 37 °F (1964)
Degree Days  
Heating Degree Days 16    
Moisture  
Dew Point 43 °F    
Average Humidity 87    
Maximum Humidity 100    
Minimum Humidity 47    
Precipitation  
Precipitation 0.02 in - - ()
Sea Level Pressure  
Sea Level Pressure 30.20 in    
Wind  
Wind Speed 5 mph (North)    
Max Wind Speed 10 mph    
Max Gust Speed -    
Visibility 10 miles    
Events Rain    
Averages and records for this station are not official NWS values.
T = Trace of Precipitation, MM = Missing Value Source: NWS Daily Summary

Daily Weather History Graph

Daily Weather History Graph

Search for Another Location

Airport or City:

Trip Planner

Search our weather history database for the weather conditions in past years. The results will help you decide how hot, cold, wet, or windy it might be!

Date:

Astronomy

Oct. 07, 2012 Rise Set
Actual Time 6:58 AM CDT 6:34 PM CDT
Civil Twilight 6:33 AM CDT 6:59 PM CDT
Nautical Twilight 6:04 AM CDT 7:28 PM CDT
Astronomical Twilight 5:34 AM CDT 7:57 PM CDT
Moon 11:54 PM CDT (10/7) 1:26 PM CDT (10/7)
Length of Visible Light 12h 25m
Length of Day
11h 35m
Waning Gibbous, 56% of the Moon is Illuminated
Oct 7
Waning Gibbous
Oct 8
Last Quarter
Oct 15
New
Oct 21
First Quarter
Oct 29
Full

Hourly Weather History & Observations

Time (CDT) Temp. Windchill Dew Point Humidity Pressure Visibility Wind Dir Wind Speed Gust Speed Precip Events Conditions
12:15 AM 44.6 °F 42.2 °F 44.6 °F 100% 30.20 in 4.0 mi NNW 4.6 mph - 0.02 in   Mostly Cloudy
12:35 AM 44.6 °F 43.1 °F 44.6 °F 100% 30.20 in 8.0 mi North 3.5 mph - 0.02 in   Overcast
12:55 AM 44.6 °F 42.2 °F 44.6 °F 100% 30.20 in 10.0 mi NNW 4.6 mph - 0.02 in   Overcast
1:15 AM 44.6 °F 41.4 °F 44.6 °F 100% 30.20 in 9.0 mi North 5.8 mph - 0.00 in   Overcast
1:35 AM 44.6 °F 41.4 °F 44.6 °F 100% 30.20 in 10.0 mi North 5.8 mph - 0.00 in   Overcast
1:55 AM 44.6 °F 42.2 °F 44.6 °F 100% 30.20 in 10.0 mi North 4.6 mph - 0.00 in   Overcast
2:15 AM 44.6 °F 40.7 °F 44.6 °F 100% 30.19 in 10.0 mi North 6.9 mph - 0.00 in   Overcast
2:35 AM 44.6 °F 41.4 °F 44.6 °F 100% 30.19 in 10.0 mi North 5.8 mph - 0.00 in   Overcast
2:55 AM 44.6 °F 40.7 °F 44.6 °F 100% 30.19 in 10.0 mi North 6.9 mph - 0.00 in   Overcast
3:15 AM 44.6 °F 40.7 °F 44.6 °F 100% 30.18 in 10.0 mi North 6.9 mph - 0.00 in   Mostly Cloudy
3:35 AM 44.6 °F 40.2 °F 44.6 °F 100% 30.19 in 9.0 mi North 8.1 mph - 0.00 in   Mostly Cloudy
3:55 AM 44.6 °F 40.2 °F 44.6 °F 100% 30.20 in 10.0 mi North 8.1 mph - 0.00 in   Overcast
4:15 AM 44.6 °F 39.2 °F 44.6 °F 100% 30.20 in 9.0 mi North 10.4 mph - 0.00 in   Overcast
4:35 AM 44.6 °F 40.2 °F 44.6 °F 100% 30.20 in 10.0 mi North 8.1 mph - 0.00 in   Overcast
4:55 AM 44.6 °F 39.7 °F 44.6 °F 100% 30.21 in 9.0 mi North 9.2 mph - 0.00 in   Overcast
5:15 AM 44.6 °F 40.2 °F 44.6 °F 100% 30.21 in 10.0 mi North 8.1 mph - 0.00 in   Overcast
5:35 AM 44.6 °F 39.7 °F 44.6 °F 100% 30.22 in 10.0 mi North 9.2 mph - 0.00 in   Overcast
5:55 AM 44.6 °F 39.7 °F 42.8 °F 93% 30.22 in 10.0 mi North 9.2 mph - N/A   Overcast
6:15 AM 44.6 °F 40.2 °F 42.8 °F 93% 30.22 in 9.0 mi North 8.1 mph - 0.00 in   Overcast
6:35 AM 42.8 °F 38.6 °F 42.8 °F 100% 30.23 in 8.0 mi North 6.9 mph - 0.00 in   Overcast
8:55 AM 46.4 °F 41.5 °F 42.8 °F 87% 30.27 in 10.0 mi North 10.4 mph - N/A   Mostly Cloudy
10:50 AM 48.2 °F - 39.2 °F 71% 30.26 in 10.0 mi NNE 3.5 mph - N/A   Mostly Cloudy
11:50 AM 51.8 °F - 37.4 °F 58% 30.26 in 10.0 mi NNE 6.9 mph - N/A   Mostly Cloudy
12:50 PM 53.6 °F - 39.2 °F 58% 30.25 in 10.0 mi NNE 8.1 mph - N/A   Mostly Cloudy
1:50 PM 55.4 °F - 37.4 °F 51% 30.21 in 10.0 mi NE 6.9 mph - N/A   Mostly Cloudy
2:50 PM 55.4 °F - 37.4 °F 51% 30.19 in 10.0 mi North 9.2 mph - N/A   Scattered Clouds
3:50 PM 55.4 °F - 37.4 °F 51% 30.18 in 10.0 mi NNW 4.6 mph - N/A   Scattered Clouds
4:45 PM 55.4 °F - 35.6 °F 47% 30.17 in 10.0 mi North 8.1 mph - N/A   Scattered Clouds
7:55 PM 50.0 °F - 39.2 °F 66% 30.17 in 10.0 mi Calm Calm - N/A Rain Light Rain
8:55 PM 48.2 °F - 46.4 °F 93% 30.19 in 10.0 mi Calm Calm - 0.00 in   Overcast
9:15 PM 48.2 °F - 46.4 °F 93% 30.19 in 10.0 mi Calm Calm - 0.00 in   Mostly Cloudy
9:35 PM 48.2 °F - 44.6 °F 87% 30.20 in 10.0 mi Calm Calm - 0.00 in   Partly Cloudy
9:55 PM 48.2 °F - 46.4 °F 93% 30.21 in 10.0 mi Calm Calm - 0.00 in   Partly Cloudy
10:15 PM 48.2 °F - 44.6 °F 87% 30.19 in 10.0 mi Calm Calm - 0.00 in   Partly Cloudy
10:35 PM 48.2 °F - 46.4 °F 93% 30.19 in 10.0 mi Calm Calm - 0.00 in   Mostly Cloudy
10:55 PM 48.2 °F - 44.6 °F 87% 30.19 in 10.0 mi Calm Calm - 0.00 in   Overcast
11:15 PM 48.2 °F - 42.8 °F 82% 30.19 in 10.0 mi Calm Calm - 0.00 in   Mostly Cloudy
11:35 PM 48.2 °F - 42.8 °F 82% 30.19 in 10.0 mi Calm Calm - 0.00 in   Scattered Clouds
11:55 PM 48.2 °F - 41.0 °F 76% 30.17 in 10.0 mi NE 4.6 mph - N/A   Partly Cloudy